カタログに戻る

COSMOS 1992

運用中軍事LEO
NORAD 19769·PAYLOAD·🇷🇺 Russia

打ち上げ Jan 26, 1989 から Plesetsk Cosmodrome

Loading…

次のパス (今後24時間)

TLE

最新Source: Space-Track

元期: Sep 14, 2026, 22:12 UTC

1 19769U 89005A   26257.92535183  .00000071  00000-0  33353-4 0  9991
2 19769  74.0441  83.8213 0023090 267.8150  92.0359 14.35861686969721

AllMySatでCOSMOS 1992をリアルタイム追跡

Download on the App Store